SCP
0 0 0 0 0 0 0 0 0 -0 0 0 0 0 0 0 0 0 0 0 0 0 0 0 0 0 0 0 0 0 0 0 0 0 0 0 0 0 0 0 0 0 0 0 0 0 0 0 0
0 0 0 0 0 0 0 0 0 0 0 0 0 0 0 0 0 0 0 0 0 0 0 0 0 0 0 0 0 0 0 0 0 0 0 0 0 0 0 0 0 0 0 0 0 0 0 0 0
0 0 0 0 0 0 0 0 0 0 0 0 0 0 0 0 0 0 0 0 0 0 0 0 0 0 0 0 0 0 0 0 0 0 0 0 0 0 0 0 0 0 0 0 0 0 0 0 0
0 0 0 0 0 0 0 0 0 0 0 0 0 0 0 0 0 0 0 0 0 0 0 0 0 0 0 0 0 0 0 0 0 0 0 0 0 0 0 0 0 0 0 0 0 0 0 0 0
0 0 0 0 0 0 0 0 0 0 0 0 0 0 0 0 0 0 0 0 0 0 0 0 0 0 0 0 0 0 0 0 0 0 0 0 0 0 0 0 0 0 0 0 0 0 0 0 0
0 0 0 0 0 0 0 0 0 0 0 0 0 0 0 0 0 0 0 0 0 0 0 0 0 0 0 0 0 0 0 0 0 0 0 0 0 0 0 0 0 0 0 0 0 0 0 0 0
0 0 0 0 0 0 0 0 0 0 0 0 0 0 0 0 0 0 0 0 0 0 0 0 0 0 0 0 0 0 0 0 0 0 0 0 0 0 0 0 0 0 0 0 0 0 0 0 0
0 0 0 0 0 0 0 0 0 0 0 0 0 0 0 0 0 0 0 0 0 0 0 0 0 0 0 0 0 0 0 0 0 0 0 0 0 0 0 0 0 0 0 0 0 0 0 0 0
0 0 0 0 0 0 0 0 0 0 0 0 0 0 0 0 0 0 0 0 0 0 0 0 0 0 0 0 0 0 0 0 0 0 0 0 0 0 0 0 0 0 0 0 0 0 0 0 0
0 0 0 0 0 0 0 0 0 0 0 0 0 0 0 0 0 0 0 0 0 0 0 0 0 0 0 0 0 0 0 0 0 0 0 0 0 0 0 0 0 0 0 0 0 0 0 0 0
0 0 0 0 0 0 0 0 0 0 0 0 0 0 0 0 0 0 0 0 0 0 0 0 0 0 0 0 0 0 0 0 0 0 0 0 0 0 0 0 0 0 0 0 0 0 0 0 0
0 0 0 0 0 0 0 0 0 0 0 0 0 0 0 0 0 0 0 0 0 0 0 0 0 0 0 0 0 0 0 0 0 0 0 0 0 0 0 0 0 0 0 0 0 0 0 0 0
0 0 0 0 0 0 0 0 0 0 0 0 0 0 0 0 0 0 0 0 0 0 0 0 0 0 0 0 0 0 0 0 0 0 0 0 0 0 0 0 0 0 0 0 0 0 0 0 0
0 0 0 0 0 0 0 0 0 0 0 0 0 0 0 0 0 0 0 0 0 0 0 0 0 0 0 0 0 0 0 0 0 0 0 0 0 0 0 0 0 0 0 0 0 0 0 0 0
0 0 0 0 0 0 0 0 0 0 0 0 0 0 0 0 0 0 0 0 0 0 0 0 0 0 0 0 0 0 0 0 0 0 0 0 0 0 0 0 0 0 0 0 0 0 0 0 0
0 0 0 0 0 0 0 0 0 0 0 0 0 0 0 0 0 0 0 0 0 0 0 0 0 0 0 0 0 0 0 0 0 0 0 0 0 0 0 0 0 0 0 0 0 0 0 0 0
0 0 0 0 0 0 0 0 0 0 0 0 0 0 0 0 0 0 0 0 0 0 0 0 0 0 0 0 0 0 0 0 0 0 0 0 0 0 0 0 0 0 0 0 0 0 0 0 0
0 0 0 0 0 0 0 0 0 0 0 0 0 0 0 0 0 0 0 0 0 0 0 0 0 0 0 0 0 0 0 0 0 0 0 0 0 0 0 0 0 0 0 0 0 0 0 0 0
0 0 0 0 0 0 0 0 0 0 0 0 0 0 0 0 0 0 0 0 0 0 0 0 0 0 0 0 0 0 0 0 0 0 0 0 0 0 0 0 0 0 0 0 0 0 0 0 0
0 0 0 0 0 0 0 0 0 0 0 0 0 0 0 0 0 0 0 0 0 0 0 0 0 0 0 0 0 0 0 0 0 0 0 0 0 0 0 0 0 0 0 0 0 0 0 0 0
0 0 0 0 0 0 0 0 0 0 0 0 0 0 0 0 0 0 0 0 0 0 0 0 0 0 0 0 0 0 0 0 0 0 0 0 0 0 0 0 0 0 0 0 0 0 0 0 0
0 0 0 0 0 0 0 0 0 0 0 0 -0 0 0 0 0 0 0 0 0 0 0 0 0 0 0 0 0 0 0 0 0 0 0 0 0 0 0 0 0 0 0 0 0 0 0 0 0
0 0 0 0 0 0 0 0 0 0 0 -0 0 0 0 0 0 0 0 0 0 0 0 0 0 0 0 0 0 0 0 0 0 0 0 0 0 0 0 0 0 0 0 0 0 0 0 0 0
0 0 0 0 0 0 0 0 0 0 -0 0 0 0 0 0 0 0 0 0 0 0 0 0 0 0 0 0 0 0 0 0 0 0 0 0 0 0 0 0 0 0 0 0 0 0 0 0 0
0 0 0 0 0 0 0 0 0 0 0 0 0 0 0 0 0 0 0 0 0 0 0 0 0 0 0 0 0 0 0 0 0 0 0 0 0 0 0 0 0 0 0 0 0 0 0 0 0
0 0 0 0 0 0 0 0 0 0 0 0 0 0 0 0 0 0 0 0 0 0 0 0 0 0 0 0 0 0 0 0 0 0 0 0 0 0 0 0 0 0 0 0 0 0 0 0 0
0 0 0 0 0 0 0 0 0 0 0 0 0 0 0 0 0 0 -0 0 0 0 0 0 0 0 0 0 0 0 0 0 0 0 0 0 0 0 0 0 0 0 0 0 0 0 0 0 0
0 0 0 0 0 0 0 0 0 0 0 0 0 0 0 0 0 0 -0 0 0 0 0 0 0 0 0 0 0 0 0 0 0 0 0 0 0 0 0 0 0 0 0 0 0 0 0 0 0
0 0 0 0 0 0 0 0 0 0 0 0 0 0 0 0 -0 -0 -0 -0 -0 0 0 0 0 0 0 0 0 0 0 0 0 0 0 0 0 0 0 0 0 0 0 0 0 0 0 0 0
0 0 0 0 0 0 0 0 0 0 0 0 0 0 -0 -0 -0 -0 -0 -0 -0 0 0 0 0 0 0 0 0 0 0 0 0 0 0 0 0 0 0 0 0 0 0 0 0 0 0 0 0
Wind_Speed_500mb
13 14 11 10 4 6 8 12 6 14 2 1 2 5 6 13 6 8 20 42 43 59 56 54 48 40 35 30 26 22 19 24 27 25 24 21 21 18 18 19 21 22 22 22 24 23 23 17 22
10 12 12 4 7 5 9 9 18 10 8 20 14 2 7 5 6 11 28 37 35 51 58 56 56 46 37 31 26 22 22 20 25 32 29 27 24 20 18 18 19 21 22 22 22 22 19 17 19
12 18 10 6 6 10 8 7 11 5 9 6 5 8 4 3 7 18 13 33 40 45 54 53 53 49 41 34 29 26 23 21 21 22 23 23 21 20 20 20 21 21 21 21 18 13 12 5 12
15 11 4 4 17 11 12 10 9 6 8 3 9 9 9 4 8 17 25 34 34 38 45 50 50 50 43 38 32 30 25 23 22 22 22 22 21 20 19 19 19 18 17 17 15 8 8 7 4
18 7 3 7 14 10 6 9 13 4 7 4 4 5 5 7 6 11 30 36 35 36 39 47 51 52 46 41 36 32 28 26 26 24 24 24 23 22 21 19 17 16 17 13 6 10 10 7 10
10 5 4 13 15 8 7 14 12 15 17 6 11 9 2 7 9 14 27 36 34 32 34 39 48 52 47 42 37 33 31 29 28 26 26 26 25 23 20 19 20 19 18 15 11 7 4 10 19
9 7 10 7 7 9 9 11 10 15 15 9 9 7 7 12 9 20 30 34 34 34 33 36 42 50 50 44 39 35 32 31 30 30 28 25 23 23 23 23 18 21 18 17 10 9 16 19 23
10 8 5 9 9 15 11 14 12 22 16 19 14 14 14 19 14 23 29 31 35 35 34 36 42 43 45 43 39 37 34 33 32 30 27 26 25 24 21 21 20 20 18 14 18 17 23 26 26
14 3 8 12 13 13 11 9 14 11 17 23 22 24 21 21 27 27 33 37 41 41 39 39 40 42 45 44 42 40 37 35 34 31 28 25 23 21 20 20 19 18 19 19 16 20 29 30 34
12 8 16 14 10 9 14 15 24 11 8 16 23 31 29 35 42 48 50 40 46 46 43 43 41 42 44 44 42 40 38 37 34 31 28 26 24 23 22 22 21 20 24 24 20 26 32 32 38
16 15 11 9 15 11 10 6 19 15 11 31 43 49 40 45 45 49 53 45 38 39 44 46 44 43 44 43 42 41 40 38 35 32 29 26 24 23 22 20 19 20 18 17 31 38 34 40 42
8 28 18 8 17 10 8 9 9 29 35 26 42 45 52 56 55 54 55 53 45 32 44 46 47 47 44 43 42 41 40 38 36 33 29 27 26 26 25 24 23 23 23 28 38 45 45 45 44
11 8 19 35 29 22 15 16 10 37 55 31 27 40 54 60 56 54 50 49 47 42 39 53 54 51 49 47 46 44 41 39 36 33 30 29 29 29 30 28 26 26 27 29 38 48 46 45 45
6 9 10 20 24 14 12 4 12 54 51 50 45 50 52 58 59 57 57 59 60 52 45 48 60 56 54 52 48 46 43 40 37 35 32 31 31 32 33 30 28 29 30 34 40 46 48 48 46
3 8 10 17 16 12 17 9 22 71 45 43 62 59 60 65 67 68 60 61 59 62 60 62 61 58 58 54 51 48 44 41 39 37 35 34 34 34 34 32 32 32 35 38 42 47 48 51 46
2 1 9 7 18 12 24 23 24 29 37 55 56 61 64 69 72 69 65 63 66 68 64 61 56 60 61 59 55 50 46 43 41 39 38 37 37 36 36 35 35 35 37 39 41 46 51 49 48
5 12 12 13 19 9 13 10 12 8 24 46 51 60 67 68 71 76 73 71 69 71 72 63 60 61 68 64 57 53 48 45 43 42 41 39 38 37 38 39 38 38 39 39 41 43 44 48 46
15 10 10 12 9 7 9 25 18 30 17 32 39 51 60 75 87 79 77 76 74 78 76 70 68 75 72 67 60 56 53 50 48 44 42 41 40 40 41 42 41 41 40 41 41 41 42 40 42
11 8 11 6 9 10 17 27 27 37 25 43 62 68 75 82 84 77 78 78 78 82 88 77 78 73 76 75 71 66 62 57 52 47 44 43 43 43 44 45 45 44 41 41 43 45 46 47 45
12 11 22 11 9 12 12 27 20 17 24 55 65 80 93 95 86 78 75 76 86 86 80 81 86 75 77 75 72 68 61 57 49 48 48 47 46 46 48 48 48 45 45 46 47 49 52 48 48
14 25 8 15 5 6 10 24 15 19 31 53 72 88 78 75 76 75 78 78 79 82 84 90 88 79 77 76 72 69 63 58 59 58 55 53 50 50 51 52 50 49 49 49 49 50 51 55 52
14 14 11 9 4 9 4 16 11 11 18 14 51 50 63 67 67 67 69 80 85 87 87 91 89 83 81 79 77 76 74 73 70 62 56 55 54 54 55 55 54 52 51 51 51 51 48 47 46
11 10 10 5 6 4 5 4 6 2 15 28 8 20 24 27 38 50 60 66 81 88 90 91 89 84 83 81 80 79 80 73 64 59 58 58 58 58 57 57 57 56 56 54 53 53 52 47 45
15 10 13 9 5 6 17 16 8 11 19 5 3 14 20 20 16 27 44 58 68 83 89 90 89 86 84 82 85 85 80 74 69 64 64 63 62 61 60 60 60 58 57 57 54 52 48 45 43
6 14 1 5 3 15 4 9 24 19 8 1 6 12 21 18 13 10 30 47 60 71 82 87 88 87 84 83 87 84 79 76 70 67 67 68 67 66 64 64 64 60 58 57 54 51 45 40 36
14 14 11 16 9 7 8 14 14 5 10 15 16 17 34 34 24 16 6 23 41 62 72 79 84 86 86 85 86 83 82 78 72 68 67 67 66 64 63 63 62 60 58 55 52 48 44 41 37
12 13 8 12 5 6 9 14 19 7 11 11 22 23 21 25 25 23 14 10 24 40 54 70 77 82 84 83 84 83 85 80 78 72 66 66 65 64 62 61 60 57 54 51 49 46 45 42 39
4 5 7 4 6 9 9 10 13 8 15 13 10 9 14 16 20 23 30 25 24 34 44 61 72 76 77 79 82 85 85 82 80 73 69 68 65 65 62 60 56 54 53 51 49 48 46 42 38
6 6 0 6 8 11 3 12 14 16 17 18 14 8 13 16 13 30 28 29 26 32 42 51 66 73 76 76 76 83 86 83 82 74 70 67 65 65 63 59 58 57 55 53 52 49 45 42 39
1 9 11 8 11 6 5 16 4 19 18 17 10 13 3 28 31 32 28 27 28 29 36 45 57 66 69 70 73 78 83 85 83 77 72 69 66 65 63 62 60 59 56 55 53 50 46 41 38
Wind_Direction_500mb
218 212 203 181 85 69 232 242 236 281 291 268 279 264 114 103 162 204 164 171 173 190 190 194 194 189 195 199 202 209 221 227 226 224 223 233 247 242 228 219 219 228 244 257 269 282 288 295 283
210 205 204 201 119 212 257 224 255 229 209 144 125 22 353 97 114 161 159 183 193 195 199 200 199 194 202 208 216 229 235 235 228 232 239 241 243 241 234 229 230 234 243 254 264 277 289 283 264
188 182 180 154 194 210 233 203 238 218 188 237 115 85 86 61 176 170 180 182 193 198 201 200 202 200 206 212 220 229 239 237 228 223 225 225 226 227 230 234 237 240 243 246 256 271 272 229 251
171 171 190 153 238 253 220 280 286 160 218 167 120 46 82 2 120 167 195 198 195 197 202 205 207 207 211 214 223 230 232 233 226 220 220 221 221 225 231 237 243 248 259 273 273 265 191 228 298
178 164 202 236 254 246 227 266 166 142 346 125 157 147 69 130 146 186 199 204 213 200 202 206 210 210 210 214 218 226 225 225 222 218 219 223 220 219 221 230 237 248 257 255 216 222 228 250 132
176 185 190 230 242 256 260 233 153 115 37 25 72 116 167 184 209 200 208 209 216 221 216 217 214 213 209 211 215 223 224 220 223 220 218 218 217 217 217 225 242 248 249 237 205 226 184 132 118
163 125 216 240 268 289 229 210 192 165 162 213 130 127 173 195 206 205 212 214 222 228 231 228 224 217 211 210 217 223 224 220 218 218 216 217 222 233 241 251 248 252 242 220 210 160 138 120 121
203 129 239 229 215 264 207 175 207 177 203 183 171 184 207 186 208 201 216 223 230 236 236 232 226 216 214 215 217 220 222 218 216 216 221 234 241 244 245 248 245 249 247 175 161 160 135 123 124
194 116 225 220 201 235 190 160 191 200 166 192 195 213 209 191 189 230 233 235 233 234 237 233 223 215 212 213 217 218 219 218 216 221 227 232 237 238 236 235 236 223 203 175 173 151 136 130 136
163 179 217 214 206 223 204 186 190 175 177 220 214 218 216 211 210 221 215 225 242 239 236 232 225 218 214 214 216 218 217 217 219 220 222 226 227 226 225 225 227 220 195 169 154 143 135 139 140
191 218 199 245 226 218 217 216 189 175 220 224 221 217 209 206 207 212 218 221 230 244 239 235 227 222 221 217 216 215 215 215 218 218 220 222 221 217 215 209 202 198 196 164 148 141 142 147 146
189 235 223 242 232 199 202 201 207 201 234 261 251 249 225 210 212 215 221 218 214 224 241 240 234 227 224 218 218 216 215 216 217 219 221 219 216 216 213 206 199 193 184 171 158 155 147 148 150
222 225 234 240 236 216 218 230 213 240 243 255 239 227 223 217 223 226 228 226 222 216 235 240 233 231 227 222 217 217 215 216 219 220 216 216 217 217 216 209 200 194 181 178 166 166 162 155 154
236 214 220 224 230 221 201 225 203 255 256 247 236 227 226 228 231 225 223 226 226 223 223 237 237 231 227 225 221 218 216 217 219 217 215 217 216 217 216 211 200 190 177 169 166 170 162 162 165
216 271 290 229 213 223 199 268 232 256 254 244 236 236 237 239 233 234 237 234 230 229 227 229 231 231 228 227 224 220 218 218 220 218 216 217 217 218 216 211 199 189 177 175 172 172 170 166 168
216 306 248 274 166 221 161 254 265 269 254 246 241 240 241 240 239 240 241 238 236 230 222 222 228 236 233 228 223 221 220 219 219 219 217 217 216 215 213 207 199 191 182 181 180 177 175 179 180
263 235 221 313 195 142 189 252 258 263 232 244 246 243 240 241 239 243 242 240 233 229 225 224 235 233 232 227 222 222 222 221 219 218 218 217 215 212 208 206 202 197 190 184 185 181 187 184 184
196 222 242 214 204 184 223 257 274 255 262 257 266 258 250 247 248 247 245 237 233 231 231 238 225 220 226 225 221 221 220 219 218 217 217 217 213 209 206 203 201 196 191 185 184 184 180 185 182
158 195 222 225 210 200 227 245 251 262 256 260 262 260 255 249 254 249 243 237 233 233 237 234 223 226 221 219 217 219 220 218 216 214 216 216 212 208 206 203 199 197 194 189 184 182 181 176 178
240 257 261 285 227 183 266 264 248 243 245 246 252 255 256 258 255 249 243 236 235 236 233 224 228 227 223 223 222 223 221 221 219 216 215 214 210 208 206 205 202 199 194 192 191 191 180 181 177
221 227 214 233 324 260 338 281 237 254 252 255 257 258 262 260 262 256 242 236 233 232 231 228 229 228 228 225 221 221 220 219 216 213 213 212 208 208 207 203 204 201 198 198 194 192 193 186 183
226 195 181 199 133 248 100 288 292 233 266 264 264 273 278 274 265 258 249 234 231 233 232 232 232 230 229 226 222 222 222 219 219 218 212 211 208 207 207 204 203 203 199 199 198 195 197 197 196
226 152 169 139 157 353 211 307 246 334 271 256 343 333 323 305 268 258 251 247 236 231 233 231 230 231 231 227 225 223 223 224 225 218 214 212 209 207 207 205 204 202 201 199 201 199 200 203 210
144 87 49 54 71 306 186 176 232 191 223 9 43 360 346 347 303 264 256 245 237 232 230 230 230 231 231 228 226 224 225 225 222 218 215 213 211 208 207 206 206 204 203 202 202 204 209 214 216
109 111 302 346 360 233 179 191 257 282 261 263 351 359 27 26 13 270 246 241 238 236 234 232 232 230 230 229 228 226 226 227 225 223 219 214 212 210 209 207 207 206 205 206 207 210 213 216 214
189 168 168 196 202 248 108 227 250 268 150 123 109 90 66 51 48 38 320 265 258 247 241 237 236 232 230 231 231 227 228 225 224 224 223 221 218 215 212 210 209 207 207 208 210 213 214 213 214
183 211 153 101 46 49 220 277 301 171 109 106 101 101 83 69 64 49 34 310 270 257 255 246 243 237 235 235 232 229 229 224 223 223 222 223 219 215 213 212 210 209 210 211 213 214 214 213 214
182 192 100 1 153 233 261 267 226 133 160 144 138 143 70 65 67 37 357 336 302 272 262 247 244 244 241 236 234 231 229 225 225 224 221 218 217 215 213 212 210 209 208 209 210 210 210 212 213
166 198 141 131 162 182 215 255 221 159 163 156 196 115 53 28 19 338 332 329 311 279 263 252 244 240 239 238 237 232 229 225 226 224 222 219 217 216 214 213 211 209 209 208 210 210 212 212 214
256 214 166 146 222 228 152 262 218 149 146 141 156 118 338 335 319 327 324 317 311 294 272 259 248 243 243 242 238 233 230 226 224 223 220 218 217 215 214 213 212 210 210 211 211 213 212 214 217
Wind_Speed_850mb
13 14 11 10 4 6 8 12 6 14 2 1 2 5 6 13 6 8 20 42 43 59 56 54 48 40 35 30 26 22 19 24 27 25 24 21 21 18 18 19 21 22 22 22 24 23 23 17 22
10 12 12 4 7 5 9 9 18 10 8 20 14 2 7 5 6 11 28 37 35 51 58 56 56 46 37 31 26 22 22 20 25 32 29 27 24 20 18 18 19 21 22 22 22 22 19 17 19
12 18 10 6 6 10 8 7 11 5 9 6 5 8 4 3 7 18 13 33 40 45 54 53 53 49 41 34 29 26 23 21 21 22 23 23 21 20 20 20 21 21 21 21 18 13 12 5 12
15 11 4 4 17 11 12 10 9 6 8 3 9 9 9 4 8 17 25 34 34 38 45 50 50 50 43 38 32 30 25 23 22 22 22 22 21 20 19 19 19 18 17 17 15 8 8 7 4
18 7 3 7 14 10 6 9 13 4 7 4 4 5 5 7 6 11 30 36 35 36 39 47 51 52 46 41 36 32 28 26 26 24 24 24 23 22 21 19 17 16 17 13 6 10 10 7 10
10 5 4 13 15 8 7 14 12 15 17 6 11 9 2 7 9 14 27 36 34 32 34 39 48 52 47 42 37 33 31 29 28 26 26 26 25 23 20 19 20 19 18 15 11 7 4 10 19
9 7 10 7 7 9 9 11 10 15 15 9 9 7 7 12 9 20 30 34 34 34 33 36 42 50 50 44 39 35 32 31 30 30 28 25 23 23 23 23 18 21 18 17 10 9 16 19 23
10 8 5 9 9 15 11 14 12 22 16 19 14 14 14 19 14 23 29 31 35 35 34 36 42 43 45 43 39 37 34 33 32 30 27 26 25 24 21 21 20 20 18 14 18 17 23 26 26
14 3 8 12 13 13 11 9 14 11 17 23 22 24 21 21 27 27 33 37 41 41 39 39 40 42 45 44 42 40 37 35 34 31 28 25 23 21 20 20 19 18 19 19 16 20 29 30 34
12 8 16 14 10 9 14 15 24 11 8 16 23 31 29 35 42 48 50 40 46 46 43 43 41 42 44 44 42 40 38 37 34 31 28 26 24 23 22 22 21 20 24 24 20 26 32 32 38
16 15 11 9 15 11 10 6 19 15 11 31 43 49 40 45 45 49 53 45 38 39 44 46 44 43 44 43 42 41 40 38 35 32 29 26 24 23 22 20 19 20 18 17 31 38 34 40 42
8 28 18 8 17 10 8 9 9 29 35 26 42 45 52 56 55 54 55 53 45 32 44 46 47 47 44 43 42 41 40 38 36 33 29 27 26 26 25 24 23 23 23 28 38 45 45 45 44
11 8 19 35 29 22 15 16 10 37 55 31 27 40 54 60 56 54 50 49 47 42 39 53 54 51 49 47 46 44 41 39 36 33 30 29 29 29 30 28 26 26 27 29 38 48 46 45 45
6 9 10 20 24 14 12 4 12 54 51 50 45 50 52 58 59 57 57 59 60 52 45 48 60 56 54 52 48 46 43 40 37 35 32 31 31 32 33 30 28 29 30 34 40 46 48 48 46
3 8 10 17 16 12 17 9 22 71 45 43 62 59 60 65 67 68 60 61 59 62 60 62 61 58 58 54 51 48 44 41 39 37 35 34 34 34 34 32 32 32 35 38 42 47 48 51 46
2 1 9 7 18 12 24 23 24 29 37 55 56 61 64 69 72 69 65 63 66 68 64 61 56 60 61 59 55 50 46 43 41 39 38 37 37 36 36 35 35 35 37 39 41 46 51 49 48
5 12 12 13 19 9 13 10 12 8 24 46 51 60 67 68 71 76 73 71 69 71 72 63 60 61 68 64 57 53 48 45 43 42 41 39 38 37 38 39 38 38 39 39 41 43 44 48 46
15 10 10 12 9 7 9 25 18 30 17 32 39 51 60 75 87 79 77 76 74 78 76 70 68 75 72 67 60 56 53 50 48 44 42 41 40 40 41 42 41 41 40 41 41 41 42 40 42
11 8 11 6 9 10 17 27 27 37 25 43 62 68 75 82 84 77 78 78 78 82 88 77 78 73 76 75 71 66 62 57 52 47 44 43 43 43 44 45 45 44 41 41 43 45 46 47 45
12 11 22 11 9 12 12 27 20 17 24 55 65 80 93 95 86 78 75 76 86 86 80 81 86 75 77 75 72 68 61 57 49 48 48 47 46 46 48 48 48 45 45 46 47 49 52 48 48
14 25 8 15 5 6 10 24 15 19 31 53 72 88 78 75 76 75 78 78 79 82 84 90 88 79 77 76 72 69 63 58 59 58 55 53 50 50 51 52 50 49 49 49 49 50 51 55 52
14 14 11 9 4 9 4 16 11 11 18 14 51 50 63 67 67 67 69 80 85 87 87 91 89 83 81 79 77 76 74 73 70 62 56 55 54 54 55 55 54 52 51 51 51 51 48 47 46
11 10 10 5 6 4 5 4 6 2 15 28 8 20 24 27 38 50 60 66 81 88 90 91 89 84 83 81 80 79 80 73 64 59 58 58 58 58 57 57 57 56 56 54 53 53 52 47 45
15 10 13 9 5 6 17 16 8 11 19 5 3 14 20 20 16 27 44 58 68 83 89 90 89 86 84 82 85 85 80 74 69 64 64 63 62 61 60 60 60 58 57 57 54 52 48 45 43
6 14 1 5 3 15 4 9 24 19 8 1 6 12 21 18 13 10 30 47 60 71 82 87 88 87 84 83 87 84 79 76 70 67 67 68 67 66 64 64 64 60 58 57 54 51 45 40 36
14 14 11 16 9 7 8 14 14 5 10 15 16 17 34 34 24 16 6 23 41 62 72 79 84 86 86 85 86 83 82 78 72 68 67 67 66 64 63 63 62 60 58 55 52 48 44 41 37
12 13 8 12 5 6 9 14 19 7 11 11 22 23 21 25 25 23 14 10 24 40 54 70 77 82 84 83 84 83 85 80 78 72 66 66 65 64 62 61 60 57 54 51 49 46 45 42 39
4 5 7 4 6 9 9 10 13 8 15 13 10 9 14 16 20 23 30 25 24 34 44 61 72 76 77 79 82 85 85 82 80 73 69 68 65 65 62 60 56 54 53 51 49 48 46 42 38
6 6 0 6 8 11 3 12 14 16 17 18 14 8 13 16 13 30 28 29 26 32 42 51 66 73 76 76 76 83 86 83 82 74 70 67 65 65 63 59 58 57 55 53 52 49 45 42 39
1 9 11 8 11 6 5 16 4 19 18 17 10 13 3 28 31 32 28 27 28 29 36 45 57 66 69 70 73 78 83 85 83 77 72 69 66 65 63 62 60 59 56 55 53 50 46 41 38
Wind_Direction_850mb
218 212 203 181 85 69 232 242 236 281 291 268 279 264 114 103 162 204 164 171 173 190 190 194 194 189 195 199 202 209 221 227 226 224 223 233 247 242 228 219 219 228 244 257 269 282 288 295 283
210 205 204 201 119 212 257 224 255 229 209 144 125 22 353 97 114 161 159 183 193 195 199 200 199 194 202 208 216 229 235 235 228 232 239 241 243 241 234 229 230 234 243 254 264 277 289 283 264
188 182 180 154 194 210 233 203 238 218 188 237 115 85 86 61 176 170 180 182 193 198 201 200 202 200 206 212 220 229 239 237 228 223 225 225 226 227 230 234 237 240 243 246 256 271 272 229 251
171 171 190 153 238 253 220 280 286 160 218 167 120 46 82 2 120 167 195 198 195 197 202 205 207 207 211 214 223 230 232 233 226 220 220 221 221 225 231 237 243 248 259 273 273 265 191 228 298
178 164 202 236 254 246 227 266 166 142 346 125 157 147 69 130 146 186 199 204 213 200 202 206 210 210 210 214 218 226 225 225 222 218 219 223 220 219 221 230 237 248 257 255 216 222 228 250 132
176 185 190 230 242 256 260 233 153 115 37 25 72 116 167 184 209 200 208 209 216 221 216 217 214 213 209 211 215 223 224 220 223 220 218 218 217 217 217 225 242 248 249 237 205 226 184 132 118
163 125 216 240 268 289 229 210 192 165 162 213 130 127 173 195 206 205 212 214 222 228 231 228 224 217 211 210 217 223 224 220 218 218 216 217 222 233 241 251 248 252 242 220 210 160 138 120 121
203 129 239 229 215 264 207 175 207 177 203 183 171 184 207 186 208 201 216 223 230 236 236 232 226 216 214 215 217 220 222 218 216 216 221 234 241 244 245 248 245 249 247 175 161 160 135 123 124
194 116 225 220 201 235 190 160 191 200 166 192 195 213 209 191 189 230 233 235 233 234 237 233 223 215 212 213 217 218 219 218 216 221 227 232 237 238 236 235 236 223 203 175 173 151 136 130 136
163 179 217 214 206 223 204 186 190 175 177 220 214 218 216 211 210 221 215 225 242 239 236 232 225 218 214 214 216 218 217 217 219 220 222 226 227 226 225 225 227 220 195 169 154 143 135 139 140
191 218 199 245 226 218 217 216 189 175 220 224 221 217 209 206 207 212 218 221 230 244 239 235 227 222 221 217 216 215 215 215 218 218 220 222 221 217 215 209 202 198 196 164 148 141 142 147 146
189 235 223 242 232 199 202 201 207 201 234 261 251 249 225 210 212 215 221 218 214 224 241 240 234 227 224 218 218 216 215 216 217 219 221 219 216 216 213 206 199 193 184 171 158 155 147 148 150
222 225 234 240 236 216 218 230 213 240 243 255 239 227 223 217 223 226 228 226 222 216 235 240 233 231 227 222 217 217 215 216 219 220 216 216 217 217 216 209 200 194 181 178 166 166 162 155 154
236 214 220 224 230 221 201 225 203 255 256 247 236 227 226 228 231 225 223 226 226 223 223 237 237 231 227 225 221 218 216 217 219 217 215 217 216 217 216 211 200 190 177 169 166 170 162 162 165
216 271 290 229 213 223 199 268 232 256 254 244 236 236 237 239 233 234 237 234 230 229 227 229 231 231 228 227 224 220 218 218 220 218 216 217 217 218 216 211 199 189 177 175 172 172 170 166 168
216 306 248 274 166 221 161 254 265 269 254 246 241 240 241 240 239 240 241 238 236 230 222 222 228 236 233 228 223 221 220 219 219 219 217 217 216 215 213 207 199 191 182 181 180 177 175 179 180
263 235 221 313 195 142 189 252 258 263 232 244 246 243 240 241 239 243 242 240 233 229 225 224 235 233 232 227 222 222 222 221 219 218 218 217 215 212 208 206 202 197 190 184 185 181 187 184 184
196 222 242 214 204 184 223 257 274 255 262 257 266 258 250 247 248 247 245 237 233 231 231 238 225 220 226 225 221 221 220 219 218 217 217 217 213 209 206 203 201 196 191 185 184 184 180 185 182
158 195 222 225 210 200 227 245 251 262 256 260 262 260 255 249 254 249 243 237 233 233 237 234 223 226 221 219 217 219 220 218 216 214 216 216 212 208 206 203 199 197 194 189 184 182 181 176 178
240 257 261 285 227 183 266 264 248 243 245 246 252 255 256 258 255 249 243 236 235 236 233 224 228 227 223 223 222 223 221 221 219 216 215 214 210 208 206 205 202 199 194 192 191 191 180 181 177
221 227 214 233 324 260 338 281 237 254 252 255 257 258 262 260 262 256 242 236 233 232 231 228 229 228 228 225 221 221 220 219 216 213 213 212 208 208 207 203 204 201 198 198 194 192 193 186 183
226 195 181 199 133 248 100 288 292 233 266 264 264 273 278 274 265 258 249 234 231 233 232 232 232 230 229 226 222 222 222 219 219 218 212 211 208 207 207 204 203 203 199 199 198 195 197 197 196
226 152 169 139 157 353 211 307 246 334 271 256 343 333 323 305 268 258 251 247 236 231 233 231 230 231 231 227 225 223 223 224 225 218 214 212 209 207 207 205 204 202 201 199 201 199 200 203 210
144 87 49 54 71 306 186 176 232 191 223 9 43 360 346 347 303 264 256 245 237 232 230 230 230 231 231 228 226 224 225 225 222 218 215 213 211 208 207 206 206 204 203 202 202 204 209 214 216
109 111 302 346 360 233 179 191 257 282 261 263 351 359 27 26 13 270 246 241 238 236 234 232 232 230 230 229 228 226 226 227 225 223 219 214 212 210 209 207 207 206 205 206 207 210 213 216 214
189 168 168 196 202 248 108 227 250 268 150 123 109 90 66 51 48 38 320 265 258 247 241 237 236 232 230 231 231 227 228 225 224 224 223 221 218 215 212 210 209 207 207 208 210 213 214 213 214
183 211 153 101 46 49 220 277 301 171 109 106 101 101 83 69 64 49 34 310 270 257 255 246 243 237 235 235 232 229 229 224 223 223 222 223 219 215 213 212 210 209 210 211 213 214 214 213 214
182 192 100 1 153 233 261 267 226 133 160 144 138 143 70 65 67 37 357 336 302 272 262 247 244 244 241 236 234 231 229 225 225 224 221 218 217 215 213 212 210 209 208 209 210 210 210 212 213
166 198 141 131 162 182 215 255 221 159 163 156 196 115 53 28 19 338 332 329 311 279 263 252 244 240 239 238 237 232 229 225 226 224 222 219 217 216 214 213 211 209 209 208 210 210 212 212 214
256 214 166 146 222 228 152 262 218 149 146 141 156 118 338 335 319 327 324 317 311 294 272 259 248 243 243 242 238 233 230 226 224 223 220 218 217 215 214 213 212 210 210 211 211 213 212 214 217